GW3385 Weather Reports


Display with metric or nautical units.
time (UTC)temp
F
wind
direction
speed
MPH
gust
MPH
rain 1hr
in
rain 24hr
in
rain mn
in
humidity
%
barometer
mb
20260504225557 61 276 12.0 20.0 0.00 0.00 0.00 75 1014.0
20260504225055 62 259 9.0 16.0 0.00 0.00 0.00 74 1014.0
20260504224557 62 309 7.0 16.0 0.00 0.00 0.00 76 1013.9
20260504224057 62 266 6.0 19.0 0.00 0.00 0.00 75 1013.9
20260504223555 62 200 8.0 19.0 0.00 0.00 0.00 76 1014.1
20260504223057 62 207 11.0 21.0 0.00 0.00 0.00 76 1014.1
20260504222552 62 286 9.0 21.0 0.00 0.00 0.00 76 1014.2
20260504222056 62 200 9.0 21.0 0.00 0.00 0.00 75 1014.2
20260504221556 62 268 9.0 20.0 0.00 0.00 0.00 75 1014.2
20260504221053 62 294 11.0 19.0 0.00 0.00 0.00 75 1014.3
20260504220556 62 290 9.0 18.0 0.00 0.00 0.00 75 1014.4
20260504220118 62 251 10.0 19.0 0.00 0.00 0.00 75 1014.5
20260504215556 62 219 10.0 19.0 0.00 0.00 0.00 74 1014.3
20260504215059 62 260 9.0 18.0 0.00 0.00 0.00 74 1014.4
20260504214557 62 279 9.0 21.0 0.00 0.00 0.00 75 1014.4
20260504214056 62 252 10.0 22.0 0.00 0.00 0.00 74 1014.5
20260504213555 62 280 11.0 22.0 0.00 0.00 0.00 73 1014.6
20260504213100 62 234 9.0 21.0 0.00 0.00 0.00 74 1014.7
20260504212556 62 276 11.0 21.0 0.00 0.00 0.00 73 1014.6
20260504212056 61 257 9.0 21.0 0.00 0.00 0.00 74 1014.6
20260504211557 61 266 11.0 21.0 0.00 0.00 0.00 72 1014.7
20260504211056 62 271 11.0 17.0 0.00 0.00 0.00 71 1014.7
20260504210557 62 279 9.0 15.0 0.00 0.00 0.00 71 1014.8
20260504210056 62 267 8.0 18.0 0.00 0.00 0.00 71 1014.6
20260504205555 62 273 9.0 18.0 0.00 0.00 0.00 70 1014.5
20260504205055 62 279 11.0 18.0 0.00 0.00 0.00 68 1014.5
20260504204556 63 196 7.0 15.0 0.00 0.00 0.00 68 1014.6
20260504204055 62 221 8.0 18.0 0.00 0.00 0.00 67 1014.5
20260504203556 63 182 9.0 18.0 0.00 0.00 0.00 66 1014.6
20260504203057 63 267 8.0 16.0 0.00 0.00 0.00 66 1014.5
20260504202557 63 294 9.0 17.0 0.00 0.00 0.00 66 1014.4
20260504202052 63 230 9.0 17.0 0.00 0.00 0.00 66 1014.3
20260504201556 63 267 8.0 17.0 0.00 0.00 0.00 65 1014.4
20260504201056 62 205 9.0 17.0 0.00 0.00 0.00 64 1014.3
20260504200555 63 279 9.0 17.0 0.00 0.00 0.00 64 1014.4
20260504200100 63 260 10.0 18.0 0.00 0.00 0.00 63 1014.4
20260504195555 63 224 8.0 18.0 0.00 0.00 0.00 64 1014.3
20260504195052 63 259 8.0 18.0 0.00 0.00 0.00 64 1014.3
20260504194555 63 267 6.0 18.0 0.00 0.00 0.00 63 1014.3
20260504194056 63 284 8.0 17.0 0.00 0.00 0.00 64 1014.4
20260504193556 63 236 5.0 20.0 0.00 0.00 0.00 65 1014.5
20260504193055 63 297 9.0 20.0 0.00 0.00 0.00 65 1014.5
20260504192555 63 290 6.0 16.0 0.00 0.00 0.00 65 1014.4
20260504192055 63 278 7.0 16.0 0.00 0.00 0.00 64 1014.5
20260504191557 63 228 6.0 14.0 0.00 0.00 0.00 64 1014.5
20260504191056 63 211 5.0 15.0 0.00 0.00 0.00 64 1014.5
20260504190556 63 281 6.0 15.0 0.00 0.00 0.00 65 1014.4
20260504190107 63 257 6.0 15.0 0.00 0.00 0.00 65 1014.5
20260504185555 62 227 7.0 16.0 0.00 0.00 0.00 66 1014.5
20260504185055 62 155 6.0 16.0 0.00 0.00 0.00 67 1014.7
20260504184613 62 218 8.0 15.0 0.00 0.00 0.00 66 1014.8
20260504184052 62 261 6.0 13.0 0.00 0.00 0.00 67 1014.9
20260504183555 62 221 5.0 14.0 0.00 0.00 0.00 67 1014.9
20260504183111 62 186 4.0 14.0 0.00 0.00 0.00 68 1014.7
20260504182552 62 190 4.0 15.0 0.00 0.00 0.00 69 1014.8
20260504182053 61 277 9.0 15.0 0.00 0.00 0.00 67 1014.7
20260504181552 62 207 6.0 16.0 0.00 0.00 0.00 68 1014.7
20260504181056 61 264 6.0 16.0 0.00 0.00 0.00 68 1014.8
20260504180556 62 304 8.0 16.0 0.00 0.00 0.00 67 1014.9
20260504180056 62 246 7.0 15.0 0.00 0.00 0.00 67 1014.8
20260504175556 62 240 6.0 15.0 0.00 0.00 0.00 68 1014.7
20260504175056 61 240 8.0 17.0 0.00 0.00 0.00 67 1014.8
20260504174604 61 182 7.0 17.0 0.00 0.00 0.00 69 1014.7
20260504174057 61 225 9.0 16.0 0.00 0.00 0.00 70 1014.6
20260504173556 61 140 7.0 13.0 0.00 0.00 0.00 70 1014.5
20260504173106 61 212 7.0 12.0 0.00 0.00 0.00 71 1014.5
20260504172555 62 246 7.0 12.0 0.00 0.00 0.00 71 1014.5
20260504172055 62 234 4.0 10.0 0.00 0.00 0.00 72 1014.5
20260504171558 62 171 5.0 10.0 0.00 0.00 0.00 71 1014.5
20260504171055 62 224 4.0 10.0 0.00 0.00 0.00 71 1014.4
20260504170557 62 261 6.0 10.0 0.00 0.00 0.00 70 1014.4
20260504151055 59 54 0.0 3.0 0.00 0.00 0.00 79 1013.9
20260504150557 58 0 0.0 3.0 0.00 0.00 0.00 79 1013.9
20260504150103 58 22 0.0 6.0 0.00 0.00 0.00 80 1014.0
20260504141055 57 350 0.0 1.0 0.00 0.00 0.00 83 1013.7
20260504140555 57 0 0.0 1.0 0.00 0.00 0.00 85 1013.7
20260504130557 57 47 1.0 2.0 0.00 0.00 0.00 84 1013.4
20260504110556 57 234 2.0 4.0 0.00 0.00 0.00 84 1013.2
20260504100555 57 0 0.0 0.0 0.00 0.00 0.00 83 1012.8
20260504081609 58 249 2.0 6.0 0.00 0.00 0.00 81 1014.1
20260504081054 58 236 2.0 5.0 0.00 0.00 0.00 82 1014.3
20260504080552 58 287 1.0 3.0 0.00 0.00 0.00 82 1014.2
20260504050556 59 250 2.0 7.0 0.00 0.00 0.00 81 1013.6
20260504045555 58 275 4.0 10.0 0.00 0.00 0.00 81 1013.6
20260504045055 59 297 3.0 10.0 0.00 0.00 0.00 81 1013.6
20260504044603 58 279 3.0 9.0 0.00 0.00 0.00 81 1013.6
20260504044057 58 296 3.0 10.0 0.00 0.00 0.00 81 1013.5
20260504043557 59 273 5.0 10.0 0.00 0.00 0.00 80 1013.5
20260504043055 59 271 3.0 7.0 0.00 0.00 0.00 81 1013.6
20260504042557 59 258 3.0 7.0 0.00 0.00 0.00 81 1013.6
20260504042100 59 0 2.0 7.0 0.00 0.00 0.00 81 1013.6
20260504041556 59 278 2.0 7.0 0.00 0.00 0.00 81 1013.5
20260504041056 59 267 3.0 8.0 0.00 0.00 0.00 80 1013.6
20260504040556 59 216 4.0 8.0 0.00 0.00 0.00 81 1013.4
20260504040105 59 183 2.0 10.0 0.00 0.00 0.00 80 1013.4
20260504035556 59 225 4.0 10.0 0.00 0.00 0.00 80 1013.3
20260504035056 59 200 5.0 9.0 0.00 0.00 0.00 80 1013.2
20260504034600 59 253 3.0 10.0 0.00 0.00 0.00 81 1013.2
20260504034056 59 191 3.0 10.0 0.00 0.00 0.00 81 1013.1
20260504033558 59 175 4.0 10.0 0.00 0.00 0.00 80 1013.2
20260504033126 59 211 2.0 7.0 0.00 0.00 0.00 81 1013.0
20260504032557 59 258 4.0 8.0 0.00 0.00 0.00 80 1012.9
20260504032100 59 171 2.0 10.0 0.00 0.00 0.00 81 1012.9
20260504031558 59 179 2.0 10.0 0.00 0.00 0.00 81 1012.8
20260504031057 58 277 4.0 11.0 0.00 0.00 0.00 81 1012.7
20260504030555 58 246 3.0 11.0 0.00 0.00 0.00 81 1012.8
20260504030101 58 287 5.0 10.0 0.00 0.00 0.00 80 1012.8
20260504025556 59 274 4.0 10.0 0.00 0.00 0.00 80 1012.7
20260504025056 59 162 4.0 10.0 0.00 0.00 0.00 79 1012.7
20260504024600 59 162 4.0 11.0 0.00 0.00 0.00 79 1013.0
20260504024102 59 255 3.0 11.0 0.00 0.00 0.00 79 1012.7
20260504023556 59 181 3.0 12.0 0.00 0.00 0.00 79 1012.7
20260504023104 59 169 4.0 15.0 0.00 0.00 0.00 78 1012.7
20260504022558 59 198 6.0 15.0 0.00 0.00 0.00 78 1012.7
20260504022055 59 308 6.0 13.0 0.00 0.00 0.00 77 1012.5
20260504021559 59 242 3.0 14.0 0.00 0.00 0.00 77 1012.5
20260504021056 59 236 5.0 14.0 0.00 0.00 0.00 76 1012.4
20260504020556 59 171 5.0 12.0 0.00 0.00 0.00 76 1012.3
20260504020101 59 206 4.0 11.0 0.00 0.00 0.00 77 1012.4
20260504015556 59 148 4.0 12.0 0.00 0.00 0.00 77 1012.2
20260504015059 59 247 4.0 12.0 0.00 0.00 0.00 76 1012.3
20260504014555 59 261 5.0 13.0 0.00 0.00 0.00 76 1012.2
20260504014055 59 288 8.0 13.0 0.00 0.00 0.00 75 1012.1
20260504013556 59 240 8.0 13.0 0.00 0.00 0.00 74 1012.1
20260504013111 59 265 5.0 14.0 0.00 0.00 0.00 74 1012.1
20260504012557 59 170 7.0 14.0 0.00 0.00 0.00 74 1012.3
20260504012055 60 268 8.0 14.0 0.00 0.00 0.00 74 1012.4
20260504011559 60 239 5.0 13.0 0.00 0.00 0.00 73 1012.2
20260504011056 60 223 5.0 13.0 0.00 0.00 0.00 72 1012.0
20260504010555 61 224 5.0 13.0 0.00 0.00 0.00 71 1012.2
20260504010112 61 169 4.0 12.0 0.00 0.00 0.00 70 1012.0
20260504005559 60 236 3.0 12.0 0.00 0.00 0.00 70 1012.1
20260504005056 60 213 6.0 12.0 0.00 0.00 0.00 70 1012.1
20260504004624 61 225 6.0 12.0 0.00 0.00 0.00 69 1012.0
20260504004055 61 242 5.0 12.0 0.00 0.00 0.00 69 1011.9
20260504003559 61 237 2.0 13.0 0.00 0.00 0.00 69 1011.8
20260504003055 61 286 4.0 13.0 0.00 0.00 0.00 68 1011.9
20260504002556 61 253 5.0 11.0 0.00 0.00 0.00 67 1011.9
20260504002056 61 265 5.0 14.0 0.00 0.00 0.00 69 1012.0
20260504001607 61 243 5.0 14.0 0.00 0.00 0.00 70 1012.0
20260504001056 61 262 4.0 11.0 0.00 0.00 0.00 71 1011.9
20260504000556 61 258 5.0 12.0 0.00 0.00 0.00 70 1011.7
20260504000055 61 238 5.0 12.0 0.00 0.00 0.00 71 1011.8
20260503235554 61 261 6.0 12.0 0.00 0.00 0.00 72 1011.7
20260503235052 61 187 5.0 13.0 0.00 0.00 0.00 72 1011.6
20260503234558 61 252 6.0 13.0 0.00 0.00 0.00 74 1011.7
20260503234052 61 263 5.0 12.0 0.00 0.00 0.00 75 1011.7
20260503233552 61 227 6.0 16.0 0.00 0.00 0.00 74 1011.6
20260503233059 61 227 6.0 16.0 0.00 0.00 0.00 74 1011.6
20260503232551 61 294 8.0 14.0 0.00 0.00 0.00 72 1011.9
20260503232051 61 261 4.0 16.0 0.00 0.00 0.00 71 1012.1
20260503231557 61 321 7.0 16.0 0.00 0.00 0.00 68 1012.0
20260503231051 62 261 5.0 12.0 0.00 0.00 0.00 69 1012.0
20260503230552 62 246 7.0 12.0 0.00 0.00 0.00 68 1012.1